FW0267 Weather Reports


time (UTC)temp
F
wind
direction
speed
knots
gust
knots
rain 1hr
in
rain 24hr
in
rain mn
in
humidity
%
barometer
mb
20260505023033 64 180 0.0 0.0 0.00 0.00 0.00 55 1013.0
20260505022534 64 180 0.0 0.9 0.00 0.00 0.00 54 1013.0
20260505022033 65 180 0.0 0.9 0.00 0.00 0.00 54 1013.0
20260505021535 65 180 0.0 0.0 0.00 0.00 0.00 54 1012.9
20260505021033 65 180 0.0 0.0 0.00 0.00 0.00 53 1013.0
20260505020533 65 180 0.0 0.0 0.00 0.00 0.00 53 1012.9
20260505020039 65 180 0.0 0.0 0.00 0.00 0.00 53 1012.9
20260505015533 66 180 0.0 0.0 0.00 0.00 0.00 53 1012.9
20260505015032 66 180 0.0 0.0 0.00 0.00 0.00 52 1012.8
20260505014534 66 180 0.0 0.0 0.00 0.00 0.00 52 1012.9
20260505014034 66 180 0.0 0.0 0.00 0.00 0.00 52 1012.8
20260505013531 67 180 0.0 0.0 0.00 0.00 0.00 51 1012.7
20260505013032 67 180 0.0 0.0 0.00 0.00 0.00 50 1012.7
20260505012532 67 180 0.0 0.0 0.00 0.00 0.00 49 1012.7
20260505012035 67 180 0.0 0.0 0.00 0.00 0.00 50 1012.5
20260505011531 68 180 0.0 0.0 0.00 0.00 0.00 49 1012.5
20260505011032 68 180 0.0 0.0 0.00 0.00 0.00 49 1012.4
20260505010531 68 180 0.0 0.0 0.00 0.00 0.00 49 1012.5
20260505010033 68 180 0.0 0.0 0.00 0.00 0.00 48 1012.4
20260505005532 69 180 0.0 0.0 0.00 0.00 0.00 47 1012.4
20260505005030 69 180 0.0 0.0 0.00 0.00 0.00 48 1012.2
20260505004531 69 180 0.0 0.0 0.00 0.00 0.00 47 1012.2
20260505004030 70 180 0.0 0.0 0.00 0.00 0.00 47 1012.4
20260505003530 70 180 0.0 0.0 0.00 0.00 0.00 47 1012.3
20260505003030 70 180 0.0 0.0 0.00 0.00 0.00 46 1012.3
20260505002529 70 180 0.0 0.0 0.00 0.00 0.00 45 1012.3
20260505002029 71 180 0.0 0.0 0.00 0.00 0.00 44 1012.3
20260505001530 71 180 0.0 0.0 0.00 0.00 0.00 44 1012.1
20260505001029 71 180 0.0 0.0 0.00 0.00 0.00 42 1012.3
20260505000528 71 180 0.0 0.0 0.00 0.00 0.00 41 1012.4
20260505000042 72 180 0.0 0.0 0.00 0.00 0.00 41 1012.5
20260504235529 72 180 0.0 0.0 0.00 0.00 0.00 40 1012.5
20260504235028 72 180 0.0 0.0 0.00 0.00 0.00 40 1012.4
20260504234528 72 180 0.0 0.0 0.00 0.00 0.00 39 1012.2
20260504234027 73 180 0.0 0.9 0.00 0.00 0.00 39 1012.3
20260504233527 73 180 0.0 0.9 0.00 0.00 0.00 38 1012.2
20260504233027 73 180 0.0 1.7 0.00 0.00 0.00 38 1012.2
20260504232528 73 180 0.0 1.7 0.00 0.00 0.00 38 1012.1
20260504232027 73 180 0.0 0.9 0.00 0.00 0.00 37 1012.1
20260504231527 73 180 0.0 1.7 0.00 0.00 0.00 37 1011.9
20260504231027 74 180 0.0 1.7 0.00 0.00 0.00 36 1012.0
20260504230527 74 180 0.9 3.5 0.00 0.00 0.00 36 1011.9
20260504230027 74 57 0.9 6.1 0.00 0.00 0.00 36 1011.9
20260504225531 74 207 0.9 7.8 0.00 0.00 0.00 35 1012.0
20260504225025 74 155 0.9 7.8 0.00 0.00 0.00 34 1012.0
20260504224525 74 194 0.9 2.6 0.00 0.00 0.00 35 1012.1
20260504224025 74 231 0.9 3.5 0.00 0.00 0.00 35 1012.2
20260504223525 74 111 0.9 3.5 0.00 0.00 0.00 34 1012.1
20260504223026 75 192 0.9 3.5 0.00 0.00 0.00 34 1012.1
20260504222525 75 214 0.9 6.1 0.00 0.00 0.00 34 1012.2
20260504222025 75 237 1.7 6.1 0.00 0.00 0.00 34 1012.1
20260504221527 75 238 0.9 4.3 0.00 0.00 0.00 34 1012.0
20260504221025 75 208 0.9 3.5 0.00 0.00 0.00 34 1011.9
20260504220526 75 210 1.7 3.5 0.00 0.00 0.00 33 1012.1
20260504220040 75 227 0.9 3.5 0.00 0.00 0.00 35 1012.0
20260504215524 75 228 0.9 3.5 0.00 0.00 0.00 35 1012.0
20260504215026 75 228 1.7 3.5 0.00 0.00 0.00 32 1012.0
20260504214524 76 119 0.9 3.5 0.00 0.00 0.00 32 1012.1
20260504214022 76 189 0.9 3.5 0.00 0.00 0.00 33 1012.0
20260504213524 76 241 0.0 3.5 0.00 0.00 0.00 32 1012.1
20260504213023 76 233 0.9 4.3 0.00 0.00 0.00 31 1012.1
20260504212522 76 233 1.7 5.2 0.00 0.00 0.00 31 1012.0
20260504212024 76 222 1.7 5.2 0.00 0.00 0.00 32 1012.0
20260504211526 76 221 0.0 3.5 0.00 0.00 0.00 33 1012.0
20260504211021 76 229 1.7 3.5 0.00 0.00 0.00 31 1012.1
20260504210521 77 210 0.9 7.8 0.00 0.00 0.00 31 1012.1
20260504210022 77 159 2.6 7.8 0.00 0.00 0.00 31 1012.0
20260504205521 77 220 0.9 3.5 0.00 0.00 0.00 31 1011.9
20260504205019 77 207 0.9 6.1 0.00 0.00 0.00 31 1012.0
20260504204534 78 155 1.7 6.1 0.00 0.00 0.00 29 1012.0
20260504204019 78 118 0.9 4.3 0.00 0.00 0.00 31 1012.1
20260504203519 78 209 0.9 3.5 0.00 0.00 0.00 30 1012.2
20260504203018 79 203 0.9 4.3 0.00 0.00 0.00 30 1012.1
20260504202518 79 202 1.7 4.3 0.00 0.00 0.00 29 1012.3
20260504202016 80 247 0.9 4.3 0.00 0.00 0.00 29 1012.2
20260504201517 80 220 1.7 4.3 0.00 0.00 0.00 28 1012.2
20260504201016 81 217 0.9 3.5 0.00 0.00 0.00 28 1012.3
20260504200515 81 198 1.7 4.3 0.00 0.00 0.00 29 1012.3
20260504200016 81 232 1.7 4.3 0.00 0.00 0.00 28 1012.4
20260504195516 81 156 1.7 4.3 0.00 0.00 0.00 28 1012.4
20260504195015 82 238 0.9 3.5 0.00 0.00 0.00 27 1012.5
20260504194515 82 238 0.9 3.5 0.00 0.00 0.00 28 1012.5
20260504194014 81 110 0.0 2.6 0.00 0.00 0.00 28 1012.5
20260504193511 81 90 0.0 2.6 0.00 0.00 0.00 28 1012.7
20260504193011 81 159 0.9 2.6 0.00 0.00 0.00 29 1012.7
20260504192509 81 142 0.9 2.6 0.00 0.00 0.00 30 1012.9
20260504192011 80 142 0.0 3.5 0.00 0.00 0.00 30 1012.9
20260504191507 80 142 0.9 3.5 0.00 0.00 0.00 30 1013.0
20260504191006 79 138 0.9 2.6 0.00 0.00 0.00 29 1013.1
20260504190505 79 146 0.9 7.8 0.00 0.00 0.00 31 1013.1
20260504190010 78 125 0.9 7.8 0.00 0.00 0.00 31 1013.1
20260504185502 78 195 1.7 6.1 0.00 0.00 0.00 31 1013.3
20260504185005 77 152 1.7 4.3 0.00 0.00 0.00 31 1013.4
20260504184504 77 224 0.9 3.5 0.00 0.00 0.00 34 1013.4
20260504184001 77 224 0.9 2.6 0.00 0.00 0.00 32 1013.4
20260504183502 77 224 0.0 2.6 0.00 0.00 0.00 33 1013.3
20260504183001 77 224 0.9 2.6 0.00 0.00 0.00 31 1013.4
20260504182600 77 217 0.9 2.6 0.00 0.00 0.00 31 1013.5
20260504182059 77 217 0.9 3.5 0.00 0.00 0.00 31 1013.5
20260504181559 77 190 1.7 3.5 0.00 0.00 0.00 30 1013.8
20260504181058 77 149 1.7 7.8 0.00 0.00 0.00 30 1013.8
20260504180559 76 214 1.7 7.8 0.00 0.00 0.00 30 1013.8
20260504180137 76 190 0.9 5.2 0.00 0.00 0.00 31 1014.1
20260504175557 76 179 1.7 5.2 0.00 0.00 0.00 31 1014.2
20260504175056 76 198 1.7 3.5 0.00 0.00 0.00 32 1014.2
20260504174554 76 223 0.9 5.2 0.00 0.00 0.00 32 1014.2
20260504174055 76 215 1.7 5.2 0.00 0.00 0.00 31 1014.3
20260504173554 76 196 0.9 4.3 0.00 0.00 0.00 34 1014.3
20260504173053 77 145 1.7 4.3 0.00 0.00 0.00 33 1014.4
20260504172553 77 214 0.0 3.5 0.00 0.00 0.00 32 1014.4
20260504172056 77 213 0.9 3.5 0.00 0.00 0.00 32 1014.5
20260504171553 77 199 0.0 3.5 0.00 0.00 0.00 32 1014.5
20260504171052 77 198 0.9 3.5 0.00 0.00 0.00 32 1014.7
20260504170551 77 163 0.9 2.6 0.00 0.00 0.00 30 1014.6
20260504151027 73 175 1.7 4.3 0.00 0.00 0.00 35 1015.8
20260504150526 73 151 0.9 7.0 0.00 0.00 0.00 35 1015.8
20260504141010 66 115 0.9 3.5 0.00 0.00 0.00 44 1016.0
20260504140508 65 127 0.0 1.7 0.00 0.00 0.00 47 1016.1
20260504130552 60 213 0.0 1.7 0.00 0.00 0.00 52 1016.3
20260504110525 51 130 0.9 1.7 0.00 0.00 0.00 55 1016.7
20260504100519 51 126 0.0 1.7 0.00 0.00 0.00 56 1016.5
20260504081512 50 140 0.0 0.0 0.00 0.00 0.00 56 1016.9
20260504081013 50 140 0.0 0.0 0.00 0.00 0.00 56 1016.9
20260504080512 50 140 0.0 0.0 0.00 0.00 0.00 56 1016.9
20260504060106 46 129 0.0 1.7 0.00 0.00 0.00 35 1017.0
20260504050551 46 111 0.0 1.7 0.00 0.00 0.00 39 1016.9
20260504045549 46 113 0.9 1.7 0.00 0.00 0.00 41 1016.8
20260504045048 46 119 0.0 1.7 0.00 0.00 0.00 41 1016.8
20260504044547 46 241 0.0 0.0 0.00 0.00 0.00 41 1016.8
20260504044047 46 241 0.0 0.0 0.00 0.00 0.00 41 1016.8
20260504043549 46 241 0.0 0.0 0.00 0.00 0.00 41 1016.8
20260504043055 46 241 0.0 0.0 0.00 0.00 0.00 42 1016.8
20260504042547 46 241 0.0 0.0 0.00 0.00 0.00 42 1016.8
20260504042049 46 241 0.0 0.0 0.00 0.00 0.00 42 1016.9
20260504041545 47 241 0.0 0.0 0.00 0.00 0.00 42 1016.9
20260504041043 47 241 0.0 0.0 0.00 0.00 0.00 43 1016.8
20260504040543 47 241 0.0 0.0 0.00 0.00 0.00 44 1016.8
20260504040044 47 241 0.0 0.0 0.00 0.00 0.00 44 1016.8
20260504035540 47 241 0.0 0.0 0.00 0.00 0.00 45 1016.9
20260504035044 47 241 0.0 0.0 0.00 0.00 0.00 46 1016.8
20260504034539 47 241 0.0 0.0 0.00 0.00 0.00 46 1016.9
20260504034035 47 241 0.0 0.0 0.00 0.00 0.00 47 1016.9
20260504033534 47 241 0.0 0.0 0.00 0.00 0.00 48 1016.8
20260504033037 47 241 0.0 0.0 0.00 0.00 0.00 48 1017.0
20260504032532 47 241 0.0 0.0 0.00 0.00 0.00 48 1016.8
20260504032033 48 241 0.0 0.0 0.00 0.00 0.00 49 1016.8
20260504031529 48 241 0.0 0.0 0.00 0.00 0.00 49 1016.8
20260504031027 48 241 0.0 0.0 0.00 0.00 0.00 50 1016.8
20260504030526 48 241 0.0 0.0 0.00 0.00 0.00 51 1016.7
20260504030024 48 241 0.0 0.0 0.00 0.00 0.00 51 1016.7
20260504025525 48 241 0.0 0.0 0.00 0.00 0.00 52 1016.8
20260504025023 48 241 0.0 0.0 0.00 0.00 0.00 52 1016.7
20260504024519 48 241 0.0 0.0 0.00 0.00 0.00 52 1016.8
20260504024019 49 241 0.0 0.0 0.00 0.00 0.00 52 1016.8
20260504023517 49 241 0.0 0.0 0.00 0.00 0.00 52 1016.8